Lexington Weather

Lexington, Massachusetts, USA

38°F
3/2/2024 8:20am 
  • Lexington Conditions: Mostly cloudy
  • Temperature: 38.3°F / 3.5°CWarmer 1.3°F than last hour.
  • Dew Point: 32.7°FIncreased 1.2°Fsince last hour.
  • Relative Humidity: 80
  • Wind: Calm, 10-min avg: Calm, gust: None
  • Barometer: 30.45 in Steady
  • Visibility: 10 miles
  • Rain Today: 0.00 in
  •   

Regional Weather Roundup
for Boston, MA

        
000
ASUS41 KBOX 271110
RWRBOX

REGIONAL WEATHER ROUNDUP
NATIONAL WEATHER SERVICE BOSTON/NORTON MA
600 AM EST TUE FEB 27 2024

NOTE:  "FAIR" INDICATES FEW OR NO CLOUDS BELOW 12,000 FEET WITH NO 
SIGNIFICANT WEATHER AND/OR OBSTRUCTIONS TO VISIBILITY.

MAZALL-271200-
EASTERN MASSACHUSETTS
  
CITY           SKY/WX    TMP DP  RH WIND       PRES   REMARKS
BOSTON         PTCLDY    31  31 100 SE6       30.11S WCI  25          
BEVERLY        CLEAR     27  23  85 CALM      30.10R                  
LAWRENCE       CLEAR     29  27  92 CALM      30.11S                  
BEDFORD        CLEAR     25  23  92 CALM      30.09S                  
NORWOOD        FOG       31  29  92 CALM      30.11S VSB 1/2          
MARSHFIELD     FOG       32  30  93 CALM      30.11S VSB<1/4          
PLYMOUTH       FOG       37  36  96 S5        30.10S VSB 1/2          
TAUNTON        FOG       33  31  92 CALM      30.10S VSB 1/4          
NEW BEDFORD    FOG       38  37  97 SE7       30.11S VSB 1/2          
$$

MAZALL-271200-
CAPE COD AND THE ISLANDS
  
CITY           SKY/WX    TMP DP  RH WIND       PRES   REMARKS
FALMOUTH       FOG       39  39 100 SW9       30.10S VSB 1/4          
HYANNIS        FOG       39  39 100 S5        30.11R VSB 1/4          
CHATHAM        PTCLDY    36  35  96 CALM      30.12S FOG              
PROVINCETOWN   LGT RAIN  37  37 100 S8        30.12F VSB 1/2 WCI  31  
NANTUCKET      CLEAR     36  36 100 SE9       30.13R WCI  29          
MARTHAS VNYRD  FOG       38  38 100 SE5       30.12R VSB 1/2          
$$
 
MAZALL-271200-
CENTRAL AND WESTERN MASSACHUSETTS
  
CITY           SKY/WX    TMP DP  RH WIND       PRES   REMARKS
WORCESTER      CLEAR     35  28  75 N3        30.06S                  
FITCHBURG      CLEAR     26  23  88 CALM      30.10S                  
ORANGE         CLEAR     23  21  92 CALM      30.09S                  
SPRINGFIELD    CLEAR     25  24  93 CALM      30.05R                  
WESTFIELD      CLEAR     28  24  85 CALM      30.08R                  
NORTH ADAMS    CLEAR     31  26  82 VRB3      30.02F                  
PITTSFIELD     CLEAR     26  24  92 CALM      30.01R                  
$$
 
RIZALL-271200-
RHODE ISLAND
  
CITY           SKY/WX    TMP DP  RH WIND       PRES   REMARKS
PROVIDENCE     FOG       35  35 100 CALM      30.11S VSB 1/4          
NEWPORT        FOG       36  36 100 SE6       30.10S VSB 1/4 WCI  31  
BLOCK ISLAND   LGT RAIN  37  37 100 SE9       30.11S VSB 1/4 WCI  30  
SMITHFIELD       N/A    N/A N/A N/A MISG        N/A                   
WESTERLY       FOG       35  33  92 CALM      30.10R VSB 1/4          
$$
 
CTZALL-271200-
CONNECTICUT
  
CITY           SKY/WX    TMP DP  RH WIND       PRES   REMARKS
BRADLEY INTL   PTCLDY    30  27  88 N3        30.07S                  
HARTFORD       CLEAR     30  27  88 CALM      30.08R FOG              
PLAINVILLE     FAIR      29  29 100 CALM      30.08R                  
BRIDGEPORT     FOG       37  36  96 NE9       30.08R VSB 1/2 WCI  30  
DANBURY        CLEAR     30  26  85 CALM      30.06S                  
GROTON         FOG       38  38 100 SE9       30.10R VSB 1/2 WCI  31  
NEW HAVEN      FOG       39  38  96 E6        30.08R VSB 1/4          
CHESTER        FOG       32  32 100 CALM      30.08R VSB<1/4          
MERIDEN        PTCLDY    27  24  89 CALM      30.09R                  
WILLIMANTIC    FOG       28  28 100 CALM      30.10R VSB 3/4          
OXFORD         MOCLDY    34  34 100 SE6       30.06R FOG     WCI  29  
$$

MEZ002-015-021-024-NHZ003-005-008-011-012-014-VTZ005-008-271200-
NORTHERN NEW ENGLAND
  
CITY           SKY/WX    TMP DP  RH WIND       PRES   REMARKS
PORTLAND ME    PTCLDY    25  23  92 NW3       30.14R                  
BANGOR ME      PTCLDY    21  18  88 CALM      30.15R                  
CONCORD NH     CLEAR     23  21  92 CALM      30.11R                  
MANCHESTER NH  CLEAR     30  25  81 N3        30.09S                  
NASHUA NH      CLEAR     25  25 100 CALM      30.11S                  
PORTSMOUTH NH  PTCLDY    27  24  89 NE3       30.10R                  
JAFFREY NH     CLEAR     26  22  84 CALM      30.06S                  
KEENE NH       CLEAR     22  21  96 CALM      30.08S                  
BURLINGTON VT  PTCLDY    41  27  57 S12       29.94F                  
MT. WASHINGTON PTCLDY    27  19  74 W44         N/A  WCI   8          
$$

NYZ052-076-271200-
EASTERN NEW YORK
  
CITY           SKY/WX    TMP DP  RH WIND       PRES   REMARKS
ALBANY         PTCLDY    28  24  85 CALM      30.01S                  
NEW YORK CITY  CLOUDY    39  35  86 NE7       30.05R                  
$$
 
ANZALL-271200-
MARINE OBSERVATIONS
  
STATION/POSITION TIME  TEMP    WIND        PRES    VSBY  WAVE
                       AIR SEA DIR/SP/G                  HT/PER
                 (UTC) (F)     (DEG/KT/KT) (MB)    (MI)  (FT/S)
BOSTON BUOY      1050   35 40  170/  8/ 12 1019.5R         1/ 9
BUZZARDS BAY     1000   39      CALM  /  2 1020.0R
NANTUCKET SOUND  1050   39 37  150/  6/  8 1019.6R         0
MASS BAY-STELLWA 0904   40 40  170/  6/  8 1019.1S  1 7/8  2/ 8
ISLE OF SHOALS   1000   39     160/  7/  8 1018.9R
S OF BLOCK IS    1056      41                N/A           3/ 9
$$

......................KEY.........................
  SKY/WX - SKY CONDITION/PRESENT WEATHER
  TMP    - TEMPERATURE IN FAHRENHEIT
  DWPT   - DEWPOINT IN FAHRENHEIT
  RH     - RELATIVE HUMIDITY IN PERCENT
  WIND   - DIRECTION AND SPEED IN MPH
  PRES   - MEAN SEA LEVEL PRESSURE IN INCHES OF HG
  WCI    - WIND CHILL INDEX
  VSB    - VISIBILITY IN MILES
  HX     - HEAT INDEX
  TC     - TEMPERATURE IN CELSIUS
  VRB    - VARIABLE WIND DIRECTION
  N/A    - NOT AVAILABLE
  
      

Other recent Regional Weather Roundups

Sat Mar 2, 8:10am EST

Sat Mar 2, 7:10am EST

Sat Mar 2, 6:10am EST

Sat Mar 2, 5:10am EST

Sat Mar 2, 4:10am EST

Sat Mar 2, 3:10am EST

Sat Mar 2, 2:10am EST

Sat Mar 2, 1:10am EST

Sat Mar 2, 12:10am EST

Fri Mar 1, 11:10pm EST

Fri Mar 1, 10:10pm EST

Fri Mar 1, 9:10pm EST

Fri Mar 1, 8:10pm EST

Fri Mar 1, 7:10pm EST

Fri Mar 1, 6:10pm EST

Fri Mar 1, 5:10pm EST

Fri Mar 1, 4:10pm EST

Fri Mar 1, 3:10pm EST

Fri Mar 1, 2:10pm EST

Fri Mar 1, 1:10pm EST

Fri Mar 1, 12:10pm EST

Fri Mar 1, 11:10am EST

Fri Mar 1, 10:10am EST

Fri Mar 1, 9:10am EST

Fri Mar 1, 8:10am EST

Fri Mar 1, 7:10am EST

Fri Mar 1, 6:10am EST

Fri Mar 1, 5:10am EST

Fri Mar 1, 4:10am EST

Fri Mar 1, 3:10am EST

Fri Mar 1, 2:10am EST

Fri Mar 1, 1:10am EST

Fri Mar 1, 12:10am EST

Thu Feb 29, 11:10pm EST

Thu Feb 29, 10:10pm EST

Thu Feb 29, 9:10pm EST

Thu Feb 29, 8:10pm EST

Thu Feb 29, 7:10pm EST

Thu Feb 29, 6:10pm EST

Thu Feb 29, 5:10pm EST

Thu Feb 29, 4:10pm EST

Thu Feb 29, 3:10pm EST

Thu Feb 29, 2:10pm EST

Thu Feb 29, 1:10pm EST

Thu Feb 29, 12:10pm EST

Thu Feb 29, 11:10am EST

Thu Feb 29, 10:10am EST

Thu Feb 29, 9:10am EST

Thu Feb 29, 8:10am EST

Thu Feb 29, 7:10am EST

Thu Feb 29, 6:10am EST

Thu Feb 29, 5:10am EST

Thu Feb 29, 4:10am EST

Thu Feb 29, 3:10am EST

Thu Feb 29, 2:10am EST

Thu Feb 29, 1:10am EST

Thu Feb 29, 12:10am EST

Wed Feb 28, 11:10pm EST

Wed Feb 28, 10:10pm EST

Wed Feb 28, 9:10pm EST

Wed Feb 28, 8:10pm EST

Wed Feb 28, 7:10pm EST

Wed Feb 28, 6:10pm EST

Wed Feb 28, 5:10pm EST

Wed Feb 28, 4:10pm EST

Wed Feb 28, 3:10pm EST

Wed Feb 28, 2:10pm EST

Wed Feb 28, 1:10pm EST

Wed Feb 28, 12:10pm EST

Wed Feb 28, 11:10am EST

Wed Feb 28, 10:10am EST

Wed Feb 28, 9:10am EST

Wed Feb 28, 8:10am EST

Wed Feb 28, 7:10am EST

Wed Feb 28, 6:10am EST

Wed Feb 28, 5:10am EST

Wed Feb 28, 4:10am EST

Wed Feb 28, 3:10am EST

Wed Feb 28, 2:10am EST

Wed Feb 28, 1:10am EST

Wed Feb 28, 12:10am EST

Tue Feb 27, 11:10pm EST

Tue Feb 27, 10:10pm EST

Tue Feb 27, 9:10pm EST

Tue Feb 27, 8:10pm EST

Tue Feb 27, 7:10pm EST

Tue Feb 27, 6:10pm EST

Tue Feb 27, 5:10pm EST

Tue Feb 27, 4:10pm EST

Tue Feb 27, 3:10pm EST

Tue Feb 27, 2:10pm EST

Tue Feb 27, 1:10pm EST

Tue Feb 27, 12:10pm EST

Tue Feb 27, 11:10am EST

Tue Feb 27, 10:10am EST

Tue Feb 27, 9:10am EST

Tue Feb 27, 8:10am EST

Tue Feb 27, 7:10am EST

Tue Feb 27, 5:10am EST

Tue Feb 27, 4:10am EST

Tue Feb 27, 3:10am EST

Tue Feb 27, 2:10am EST

Tue Feb 27, 1:10am EST

Tue Feb 27, 12:10am EST

Mon Feb 26, 11:10pm EST

Mon Feb 26, 10:10pm EST

Mon Feb 26, 9:10pm EST

Mon Feb 26, 8:10pm EST

Mon Feb 26, 7:10pm EST

Mon Feb 26, 6:10pm EST

Mon Feb 26, 5:10pm EST

Mon Feb 26, 4:10pm EST

Mon Feb 26, 3:10pm EST

Mon Feb 26, 2:10pm EST

Mon Feb 26, 1:10pm EST

Mon Feb 26, 12:10pm EST

Mon Feb 26, 11:10am EST

Mon Feb 26, 10:10am EST

Mon Feb 26, 9:10am EST

Mon Feb 26, 8:10am EST

Mon Feb 26, 7:10am EST

Mon Feb 26, 6:10am EST

Mon Feb 26, 5:10am EST

Mon Feb 26, 4:10am EST

Mon Feb 26, 3:10am EST

Mon Feb 26, 2:10am EST

Mon Feb 26, 1:10am EST

Mon Feb 26, 12:10am EST

Sun Feb 25, 11:10pm EST

Sun Feb 25, 10:10pm EST

Sun Feb 25, 9:10pm EST

Sun Feb 25, 8:10pm EST

Sun Feb 25, 7:10pm EST

Sun Feb 25, 6:10pm EST

Sun Feb 25, 5:10pm EST

Sun Feb 25, 4:10pm EST

Sun Feb 25, 3:10pm EST

Sun Feb 25, 2:10pm EST

Sun Feb 25, 1:10pm EST

Sun Feb 25, 12:10pm EST

Sun Feb 25, 11:10am EST

Sun Feb 25, 10:10am EST

Sun Feb 25, 9:10am EST

Sun Feb 25, 8:10am EST

Sun Feb 25, 7:10am EST

Sun Feb 25, 6:10am EST

Sun Feb 25, 5:10am EST

Sun Feb 25, 4:10am EST

Sun Feb 25, 3:10am EST

Sun Feb 25, 2:10am EST

Sun Feb 25, 1:10am EST

Sun Feb 25, 12:10am EST

Sat Feb 24, 11:10pm EST

Sat Feb 24, 10:10pm EST

Sat Feb 24, 9:10pm EST

Sat Feb 24, 8:10pm EST

Sat Feb 24, 7:10pm EST

Sat Feb 24, 6:10pm EST

Sat Feb 24, 5:10pm EST

Sat Feb 24, 4:10pm EST

Sat Feb 24, 3:10pm EST

Sat Feb 24, 2:10pm EST

Sat Feb 24, 1:10pm EST

Sat Feb 24, 12:10pm EST

Sat Feb 24, 11:10am EST

Sat Feb 24, 10:10am EST

Sat Feb 24, 9:10am EST